Location: Saratoga Springs
(43.0831°N, 73.7850°W)
Time: 05:11:31
(UTC-04:00)

Vanguard 2 - Pass Details

Date: 21 April 2024
Orbit: 553 x 2914 km, 32.9° (Epoch: 17 May)

Event Time Altitude Azimuth Distance (km) Brightness Sun altitude
Rises 09:54:35 0° 275° (W) 6,637 11.9 40.6°
Reaches altitude 10° 10:02:43 10° 254° (WSW) 5,272 11.5 41.9°
Maximum altitude 10:08:31 13° 231° (SW) 4,628 11.4 42.9°
Drops below altitude 10° 10:13:38 10° 207° (SSW) 4,496 11.6 43.7°
Sets 10:19:24 0° 183° (S) 4,951 11.9 44.6°
